Regional Weather Roundup
Issued by NWS Albany, NY

Home | Current Version | Previous Version | Text Only | Print | Product List | Glossary On
Versions: 1 2 3 4 5 6 7 8 9 10 11 12 13 14 15 16 17 18 19 20 21 22 23 24 25 26 27 28 29 30 31 32 33 34 35 36 37 38 39 40 41 42 43 44 45 46 47 48 49 50
000
ASUS41 KALY 190510
RWRALY

NEW YORK STATE HOURLY WEATHER ROUNDUP
NATIONAL WEATHER SERVICE ALBANY NY
100 AM EDT THU OCT 19 2017

NOTE: "FAIR" INDICATES FEW OR NO CLOUDS BELOW 12,000 FEET WITH NO
SIGNIFICANT WEATHER AND/OR NO OBSTRUCTIONS TO VISIBILITY.

NYZ032-033-038>043-046>054-057>066-NYZ062>081-082-084-190600-
EAST


CITY           SKY/WX    TMP DP  RH WIND       PRES   REMARKS
ALBANY         CLEAR     50  44  80 CALM      30.22F
GLENS FALLS    CLEAR     41  38  89 CALM      30.21F
POUGHKEEPSIE   CLEAR     46  44  93 CALM      30.24F
NEWBURGH       CLEAR     54  46  76 W6        30.27S
MONTGOMERY     CLEAR     46  45  96 CALM      30.25F
WHITE PLAINS   CLEAR     56  47  71 W5        30.26F
ISLIP          CLEAR     54  53  97 CALM      30.27F
NEW YORK CITY  CLEAR     62  47  57 SW6       30.27S
CENTRAL PARK   CLEAR     61  47  59 W8        30.30S
$$

NYZ005>009-017-018-044>046-055-056-190600-
CENTRAL


CITY           SKY/WX    TMP DP  RH WIND       PRES   REMARKS
FULTON           N/A    N/A N/A N/A MISG      30.14F
SYRACUSE       CLEAR     54  44  69 S5        30.15F
ROME           CLEAR     54  46  74 E7        30.20F
ELMIRA         CLEAR     42  40  92 CALM      30.20F
BINGHAMTON     CLEAR     53  41  63 S8        30.21F
MONTICELLO     CLEAR     44  42  93 CALM      30.28F
$$

NYZ026>034-041>043-087-190600-
NORTH


CITY           SKY/WX    TMP DP  RH WIND       PRES   REMARKS
WATERTOWN      CLEAR     60  45  57 S6        30.12R
FORT DRUM      NOT AVBL
OGDENSBURG     FAIR      53  47  81 SW5       30.10R
MASSENA        CLEAR     42  41  96 CALM      30.09F
SARANAC LAKE   CLEAR     36  35  96 CALM      30.16S
PLATTSBURGH    CLEAR     42  40  92 CALM      30.14S
$$

NYZ001>004-010>016-019>021-085-190600-
WEST


CITY           SKY/WX    TMP DP  RH WIND       PRES   REMARKS
NIAGARA FALLS    N/A     57  45  64 S9        30.10F
BUFFALO        CLEAR     52  42  69 SW9       30.11F
DUNKIRK        CLEAR     59  41  51 S13       30.13S
JAMESTOWN      CLEAR     51  39  63 S6        30.18S
WELLSVILLE     CLEAR     57  38  48 S12G20    30.20F
ROCHESTER      CLEAR     51  43  74 SW6       30.12F
PENN YAN       CLEAR     58  42  55 SW9       30.16F
$$

             KEY
       WCI = WIND CHILL INDEX
       VSB = VISIBILITY
       HX  = HEAT INDEX
$$



USA.gov is the U.S. government's official web portal to all federal, state and local government web resources and services.